Weather observations for the past three days for
Ann Arbor, Ann Arbor Municipal Airport
Metric (Imperial)
Date Time (edt) Wind (kph) Vis. (km) Weather Sky Cond. Temperature (ºC) Relative Humidity Wind Chill (°C) Heat Index (°C) Pressure Precipitation (cm)
Air Dwpt 6 hour altimeter (cm) sea level (mb) 1 hr 3 hr 6 hr
Max. Min.
21 13:53 Calm 12.87 Fair CLR 29.4 22.8 29.4 22.2 68% 33 76.66 1021.4
21 12:53 Calm 11.27 Mostly Cloudy BKN075 28.3 22.8 72% 32 76.73 1022.3
21 11:53 NW 11 9.66 Partly Cloudy with Haze SCT070 27.2 22.8 77% 30 76.76 1022.8
21 10:53 SW 6 8.05 Fog/Mist FEW095 24.4 22.2 88% 25 76.76 1022.9
21 09:53 Calm 8.05 Fog/Mist FEW110 23.9 21.7 88% 24 76.78 1023.1
21 08:53 Calm 9.66 Fog/Mist FEW120 22.8 21.1 90% 76.78 1023.2
21 07:53 Calm 12.87 Fair CLR 22.2 20 22.8 18.3 87% 76.78 1023.2
21 06:53 Calm 2.01 Fog/Mist CLR 19.4 18.9 97% 76.78 1023.2
21 05:53 Calm 6.44 Fog/Mist CLR 19.4 18.9 97% 76.76 1022.9
21 04:53 NE 6 12.87 Fair CLR 20.6 18.9 90% 76.76 1022.7
21 03:53 E 6 9.66 Fog/Mist CLR 20.6 19.4 93% 76.78 1023.0
21 02:53 E 6 6.44 Fog/Mist CLR 21.7 20.6 94% 76.78 1023.2
21 01:53 E 6 4.83 Fog/Mist FEW008 FEW060 22.8 21.7 26.7 21.1 94% 76.81 1023.3 0.1
21 00:53 Calm 6.44 Fog/Mist CLR 21.1 20.6 97% 76.84 1023.7
20 23:53 Calm 12.87 Fair CLR 22.8 21.7 94% 76.84 1023.7
20 22:53 NE 9 16.09 A Few Clouds FEW048 FEW070 24.4 22.2 88% 25 76.86 1024.0 0.1 0.1
20 21:53 N 9 16.09 Mostly Cloudy BKN060 BKN075 25 21.7 82% 26 76.86 1024.0
20 20:53 NE 6 16.09 Fair CLR 25 21.1 79% 26 76.78 1023.2
20 19:53 NE 7 16.09 Fair CLR 26.7 20.6 33.3 26.7 69% 28 76.76 1022.8
20 18:53 E 9 16.09 A Few Clouds FEW047 27.2 22.2 74% 30 76.81 1023.4
20 17:53 E 17 16.09 Thunderstorm in Vicinity SCT060 SCT070 28.3 21.7 67% 31 76.78 1023.1
20 16:53 W 6 16.09 Partly Cloudy SCT049 33.3 22.2 52% 38 76.73 1022.4
20 15:53 SW 7 16.09 Fair CLR 32.2 22.2 56% 36 76.78 1022.9
20 14:53 NE 9 14.48 Overcast OVC039 31.7 23.9 63% 37 76.81 1023.4
20 13:53 Calm 12.87 Mostly Cloudy SCT029 BKN037 31.7 24.4 31.7 23.9 65% 38 76.89 1024.2
20 12:53 S 6 12.87 Fair CLR 29.4 23.9 72% 34 76.91 1024.8
20 11:53 Calm 11.27 Fair CLR 29.4 23.9 72% 34 76.94 1024.9
20 10:53 Calm 12.87 Partly Cloudy SCT080 SCT095 27.2 22.8 77% 30 76.94 1025.1
20 09:53 NE 6 12.87 Fair CLR 26.7 22.8 79% 29 76.91 1025.0
20 08:53 NE 7 11.27 Fair CLR 25 22.8 88% 26 76.91 1025.0
20 07:53 N 9 9.66 Fog/Mist CLR 23.9 21.7 23.9 20.6 88% 24 76.94 1024.8 1.07
20 06:53 Calm 6.44 Fog/Mist SCT070 21.1 20.6 97% 76.91 1024.6
20 05:53 Calm 6.44 Fog/Mist CLR 20.6 20 96% 76.86 1024.1
20 04:53 Calm 14.48 Fair CLR 22.2 20.6 91% 76.84 1023.7 1.07
20 03:53 SE 11 12.87 Mostly Cloudy SCT050 BKN060 BKN085 23.3 21.1 88% 76.86 1024.0 1.07
20 02:53 NW 7 14.48 Mostly Cloudy BKN050 22.8 20.6 87% 76.89 1024.4
20 01:53 SW 9 16.09 Partly Cloudy FEW049 SCT060 22.8 20 30 20 84% 76.86 1023.9 0.79
20 00:53 E 6 16.09 Mostly Cloudy SCT050 BKN060 22.2 20 87% 76.89 1024.2
19 23:53 Calm 16.09 Fair CLR 21.7 20.6 94% 76.86 1024.0
19 22:53 Calm 16.09 Fair CLR 20.6 19.4 93% 76.84 1023.7 0.79
19 21:53 Calm 8.05 Fog/Mist FEW070 21.1 19.4 90% 76.84 1023.9
19 20:53 Calm 3.22 Thunderstorm Light Rain SCT030 BKN044 OVC095 22.2 17.8 76% 76.78 1023.1 0.79
19 19:53 W 6 11.27 A Few Clouds FEW075 30 23.3 31.7 29.4 67% 34 76.76 1022.4
19 18:53 W 7 11.27 A Few Clouds FEW065 30.6 22.8 63% 35 76.76 1022.8
19 17:53 Vrbl 7 11.27 Fair CLR 31.1 22.2 59% 35 76.76 1022.7
19 16:53 W 9 16.09 Fair CLR 30.6 22.2 61% 34 76.78 1023.1
19 15:53 Vrbl 6 16.09 Fair CLR 30 21.7 61% 33 76.81 1023.3
19 14:53 W 11 16.09 Fair CLR 30 21.7 61% 33 76.84 1023.5
19 13:53 SW 11 16.09 Fair CLR 29.4 21.7 30.6 25 63% 32 76.84 1023.7
19 12:53 S 11 16.09 Fair CLR 29.4 21.7 63% 32 76.84 1023.7
19 11:53 SW 11 16.09 Fair CLR 28.3 21.7 67% 31 76.84 1023.7
19 10:53 SW 11 16.09 A Few Clouds FEW044 27.8 22.2 72% 30 76.89 1024.2
19 09:53 S 9 16.09 Fair CLR 27.8 22.2 72% 30 76.81 1023.4
19 08:53 Calm 16.09 Fair CLR 26.7 21.1 71% 28 76.81 1023.4
19 07:53 S 6 16.09 A Few Clouds FEW065 25 20.6 25 21.7 77% 26 76.78 1023.0
19 06:53 Calm 16.09 Fair CLR 22.8 20.6 87% 76.73 1022.4
19 05:53 Calm 16.09 Fair CLR 23.9 19.4 76% 24 76.68 1021.4
19 04:53 SW 6 16.09 Fair CLR 22.8 19.4 81% 76.63 1021.1
19 03:53 SW 7 16.09 Fair CLR 22.8 18.9 79% 76.63 1020.8
19 02:53 W 7 16.09 Fair CLR 23.9 18.3 71% 25 76.61 1020.4
19 01:53 SW 11 16.09 Fair CLR 25 18.3 30 25 66% 26 76.61 1020.5
19 00:53 S 11 16.09 Fair CLR 25.6 19.4 69% 27 76.56 1020.0
18 23:53 S 7 16.09 Fair CLR 25.6 20.6 74% 27 76.56 1019.8
18 22:53 S 11 16.09 Fair CLR 26.7 20 67% 28 76.53 1019.5
18 21:53 S 7 14.48 Fair CLR 26.1 19.4 67% 27 76.45 1018.6
18 20:53 S 7 16.09 Fair CLR 27.8 20 63% 29 76.43 1018.3
18 19:53 SW 17 16.09 Fair CLR 30 20 31.1 28.3 55% 32 76.43 1018.3
18 18:53 SW 15 16.09 Fair CLR 30.6 19.4 51% 32 76.43 1018.2
18 17:53 SW 13 G 31 16.09 Fair CLR 30.6 20 53% 33 76.43 1018.2
18 16:53 S 17 G 30 16.09 Fair CLR 30.6 20.6 55% 33 76.43 1018.4
18 15:53 SW 15 G 31 16.09 A Few Clouds FEW050 30.6 20.6 55% 33 76.48 1018.8
18 14:53 SW 20 G 33 16.09 Fair CLR 30 20.6 57% 32 76.5 1019.2
Date Time (edt) Wind (kph) Vis. (km) Weather Sky Cond. Air Dwpt Max. Min. Relative Humidity Wind Chill (°C) Heat Index (°C) altimeter (cm) sea level (mb) 1 hr 3 hr 6 hr
6 hour
Temperature (ºC) Pressure Precipitation (cm)